Hollywood, FL

11:25 PM EDT on July 20, 2017 (GMT -0400)
North Perry

Weather History for KHWO - May, 2013

Change the Weather History Date:

Monday, May 27, 2013

  Actual Average (KFLL) Record (KFLL)
Temperature  
Mean Temperature 80 °F -  
Max Temperature 86 °F 85 °F 94 °F (1924)
Min Temperature 75 °F 72 °F 62 °F (1927)
Cooling Degree Days 14    
Growing Degree Days 30 (Base 50)    
Moisture  
Dew Point 70 °F    
Average Humidity 70    
Maximum Humidity 81    
Minimum Humidity 61    
Precipitation  
Precipitation 0.00 in - - ()
Sea Level Pressure  
Sea Level Pressure 30.12 in    
Wind  
Wind Speed 15 mph (ENE)    
Max Wind Speed 21 mph    
Max Gust Speed 29 mph    
Visibility 10 miles    
Events      
Averages and records for this station are not official NWS values.
T = Trace of Precipitation, MM = Missing Value Source: NWS Daily Summary

Daily Weather History Graph

Daily Weather History Graph

Search for Another Location

Airport or City:

Trip Planner

Search our weather history database for the weather conditions in past years. The results will help you decide how hot, cold, wet, or windy it might be!

Date:

Astronomy

May. 27, 2013 Rise Set
Actual Time 6:30 AM EDT 8:06 PM EDT
Civil Twilight 6:04 AM EDT 8:32 PM EDT
Nautical Twilight 5:33 AM EDT 9:02 PM EDT
Astronomical Twilight 5:01 AM EDT 9:34 PM EDT
Moon 10:51 PM EDT (5/27) 9:01 AM EDT (5/27)
Length of Visible Light 14h 27m
Length of Day
13h 36m
Waning Gibbous, 91% of the Moon is Illuminated
May 27
Waning Gibbous
May 31
Last Quarter
Jun 8
New
Jun 16
First Quarter
Jun 23
Full

Hourly Weather History & Observations

Time (EDT) Temp. Heat Index Dew Point Humidity Pressure Visibility Wind Dir Wind Speed Gust Speed Precip Events Conditions
12:53 AM 77.0 °F - 64.9 °F 66% 30.17 in 10.0 mi East 12.7 mph - N/A   Partly Cloudy
1:53 AM 75.9 °F - 64.9 °F 69% 30.15 in 10.0 mi East 12.7 mph - N/A   Partly Cloudy
2:53 AM 75.9 °F - 64.9 °F 69% 30.13 in 10.0 mi East 11.5 mph 16.1 mph N/A   Clear
3:53 AM 75.9 °F - 66.0 °F 71% 30.12 in 10.0 mi East 9.2 mph - N/A   Partly Cloudy
4:53 AM 75.9 °F - 66.9 °F 74% 30.11 in 10.0 mi East 8.1 mph - N/A   Clear
5:53 AM 75.9 °F - 68.0 °F 76% 30.11 in 10.0 mi East 9.2 mph - N/A   Scattered Clouds
6:53 AM 77.0 °F - 68.0 °F 74% 30.12 in 10.0 mi East 9.2 mph - N/A   Mostly Cloudy
7:53 AM 79.0 °F - 68.0 °F 69% 30.13 in 10.0 mi East 11.5 mph - N/A   Clear
8:53 AM 81.0 °F 83.8 °F 68.0 °F 65% 30.14 in 10.0 mi East 17.3 mph 24.2 mph N/A   Scattered Clouds
9:44 AM 82.4 °F 86.3 °F 69.8 °F 66% 30.14 in 10.0 mi East 17.3 mph - N/A   Mostly Cloudy
9:53 AM 82.9 °F 86.5 °F 69.1 °F 63% 30.14 in 10.0 mi ENE 18.4 mph 24.2 mph N/A   Mostly Cloudy
10:11 AM 82.4 °F 86.3 °F 69.8 °F 66% 30.14 in 10.0 mi East 19.6 mph - N/A   Mostly Cloudy
10:53 AM 82.9 °F 87.5 °F 71.1 °F 67% 30.15 in 10.0 mi East 16.1 mph 24.2 mph N/A   Mostly Cloudy
11:20 AM 84.2 °F 88.4 °F 69.8 °F 62% 30.15 in 10.0 mi East 19.6 mph 25.3 mph N/A   Mostly Cloudy
11:53 AM 84.0 °F 87.8 °F 69.1 °F 61% 30.15 in 10.0 mi East 19.6 mph 25.3 mph N/A   Mostly Cloudy
12:53 PM 82.9 °F 87.5 °F 71.1 °F 67% 30.15 in 10.0 mi ENE 18.4 mph 25.3 mph N/A   Overcast
1:07 PM 84.2 °F 89.6 °F 71.6 °F 66% 30.16 in 10.0 mi ENE 15.0 mph 25.3 mph N/A   Scattered Clouds
1:50 PM 82.4 °F 86.3 °F 69.8 °F 66% 30.15 in 10.0 mi East 19.6 mph 26.5 mph N/A   Mostly Cloudy
1:53 PM 82.9 °F 87.5 °F 71.1 °F 67% 30.15 in 10.0 mi ENE 18.4 mph 26.5 mph N/A   Mostly Cloudy
2:34 PM 84.2 °F 88.4 °F 69.8 °F 62% 30.14 in 10.0 mi ENE 17.3 mph - N/A   Overcast
2:41 PM 84.2 °F 88.4 °F 69.8 °F 62% 30.14 in 10.0 mi ENE 17.3 mph - N/A   Overcast
2:53 PM 82.9 °F 87.5 °F 71.1 °F 67% 30.14 in 10.0 mi ENE 18.4 mph 25.3 mph N/A   Overcast
3:22 PM 82.4 °F 87.2 °F 71.6 °F 70% 30.12 in 10.0 mi NE 19.6 mph 26.5 mph N/A   Mostly Cloudy
3:53 PM 84.0 °F 89.0 °F 71.1 °F 65% 30.11 in 10.0 mi ENE 17.3 mph 25.3 mph N/A   Overcast
4:07 PM 82.4 °F 86.3 °F 69.8 °F 66% 30.10 in 10.0 mi East 17.3 mph - N/A   Overcast
4:29 PM 84.2 °F 89.6 °F 71.6 °F 66% 30.10 in 10.0 mi ENE 18.4 mph 26.5 mph N/A   Mostly Cloudy
4:53 PM 82.0 °F 85.9 °F 70.0 °F 67% 30.09 in 10.0 mi ENE 18.4 mph 24.2 mph N/A   Mostly Cloudy
5:53 PM 81.0 °F 84.4 °F 70.0 °F 69% 30.09 in 10.0 mi East 20.7 mph 26.5 mph N/A   Mostly Cloudy
6:16 PM 82.4 °F 86.3 °F 69.8 °F 66% 30.08 in 10.0 mi ENE 20.7 mph 28.8 mph N/A   Mostly Cloudy
6:24 PM 80.6 °F 83.9 °F 69.8 °F 70% 30.08 in 10.0 mi ENE 19.6 mph 26.5 mph N/A   Scattered Clouds
6:32 PM 82.4 °F 86.3 °F 69.8 °F 66% 30.08 in 10.0 mi East 20.7 mph 26.5 mph N/A   Mostly Cloudy
6:51 PM 80.6 °F 84.6 °F 71.6 °F 74% 30.08 in 10.0 mi East 17.3 mph 24.2 mph N/A   Mostly Cloudy
6:53 PM 81.0 °F 84.9 °F 71.1 °F 72% 30.08 in 10.0 mi ENE 16.1 mph 24.2 mph N/A   Mostly Cloudy
7:00 PM 80.6 °F 84.6 °F 71.6 °F 74% 30.08 in 10.0 mi ENE 13.8 mph - N/A   Mostly Cloudy
7:15 PM 80.6 °F 83.9 °F 69.8 °F 70% 30.09 in 10.0 mi East 19.6 mph - N/A   Scattered Clouds
7:53 PM 80.1 °F 83.6 °F 71.1 °F 74% 30.09 in 10.0 mi East 13.8 mph 21.9 mph N/A   Mostly Cloudy
8:13 PM 78.8 °F - 71.6 °F 78% 30.09 in 10.0 mi East 16.1 mph - N/A   Mostly Cloudy
8:23 PM 78.8 °F - 71.6 °F 78% 30.10 in 10.0 mi East 15.0 mph - N/A   Mostly Cloudy
8:40 PM 78.8 °F - 71.6 °F 78% 30.09 in 10.0 mi East 16.1 mph - N/A   Mostly Cloudy
8:53 PM 79.0 °F - 71.1 °F 77% 30.10 in 10.0 mi East 19.6 mph 28.8 mph N/A   Partly Cloudy
9:33 PM 78.8 °F - 71.6 °F 78% 30.10 in 10.0 mi East 15.0 mph - N/A   Mostly Cloudy
9:53 PM 79.0 °F - 71.1 °F 77% 30.11 in 10.0 mi East 18.4 mph 23.0 mph N/A   Mostly Cloudy
10:05 PM 78.8 °F - 71.6 °F 78% 30.11 in 10.0 mi East 16.1 mph 24.2 mph N/A   Mostly Cloudy
10:41 PM 78.8 °F - 71.6 °F 78% 30.12 in 10.0 mi East 18.4 mph 24.2 mph N/A   Mostly Cloudy
10:48 PM 78.8 °F - 71.6 °F 78% 30.11 in 10.0 mi East 15.0 mph 24.2 mph N/A   Scattered Clouds
10:53 PM 79.0 °F - 71.1 °F 77% 30.11 in 10.0 mi East 13.8 mph 24.2 mph N/A   Partly Cloudy
11:41 PM 78.8 °F - 71.6 °F 78% 30.12 in 10.0 mi East 12.7 mph - 0.00 in   Mostly Cloudy
11:53 PM 78.1 °F - 72.0 °F 81% 30.12 in 10.0 mi East 12.7 mph - 0.00 in   Mostly Cloudy